Siemreap, Cambodia

8:46 PM +07 on October 17, 2017 (GMT +0700)
Siem Reap

Weather History for VDSR - June, 2014

Change the Weather History Date:

Wednesday, June 4, 2014

  Actual Average Record
Temperature  
Mean Temperature 88 °F -  
Max Temperature 95 °F - - ()
Min Temperature 80 °F - - ()
Cooling Degree Days 22    
Growing Degree Days 38 (Base 50)    
Moisture  
Dew Point 77 °F    
Average Humidity 74    
Maximum Humidity 94    
Minimum Humidity 49    
Precipitation  
Precipitation 0.00 in - - ()
Sea Level Pressure  
Sea Level Pressure 29.61 in    
Wind  
Wind Speed 5 mph ()    
Max Wind Speed 21 mph    
Max Gust Speed -    
Visibility 6.2 miles    
Events      
T = Trace of Precipitation, MM = Missing Value Source: Averaged Metar Reports

Daily Weather History Graph

Daily Weather History Graph

Search for Another Location

Airport or City:

Trip Planner

Search our weather history database for the weather conditions in past years. The results will help you decide how hot, cold, wet, or windy it might be!

Date:

Astronomy

Jun. 04, 2014 Rise Set
Actual Time 5:36 AM +07 6:29 PM +07
Civil Twilight 5:13 AM +07 6:52 PM +07
Nautical Twilight 4:46 AM +07 7:19 PM +07
Astronomical Twilight 4:18 AM +07 7:47 PM +07
Moon 10:48 AM +07 (6/4) 11:25 PM +07 (6/4)
Length of Visible Light 13h 39m
Length of Day
12h 52m
Waxing Crescent, 34% of the Moon is Illuminated
Jun 4
Waxing Crescent
Jun 6
First Quarter
Jun 13
Full
Jun 20
Last Quarter
Jun 27
New

Hourly Weather History & Observations

Time (+07) Temp. Heat Index Dew Point Humidity Pressure Visibility Wind Dir Wind Speed Gust Speed Precip Events Conditions
12:00 AM 80.6 °F 87.1 °F 77.0 °F 89% 29.68 in 5.6 mi SE 4.6 mph - N/A   Partly Cloudy
1:00 AM 80.6 °F 87.1 °F 77.0 °F 89% 29.65 in 5.6 mi SE 4.6 mph - N/A   Partly Cloudy
7:00 AM 82.4 °F 94.0 °F 80.6 °F 94% 29.65 in 6.2 mi SSE 2.3 mph - N/A   Scattered Clouds
7:30 AM 82.4 °F 94.0 °F 80.6 °F 94% 29.65 in 6.2 mi South 2.3 mph - N/A   Scattered Clouds
8:00 AM 84.2 °F 98.3 °F 80.6 °F 89% 29.68 in 6.2 mi SSW 5.8 mph - N/A   Scattered Clouds
8:30 AM 84.2 °F 98.3 °F 80.6 °F 89% 29.68 in 6.2 mi SW 5.8 mph - N/A   Scattered Clouds
9:00 AM 86.0 °F 99.3 °F 78.8 °F 79% 29.68 in 6.2 mi WSW 3.5 mph - N/A   Scattered Clouds
9:30 AM 87.8 °F 102.5 °F 78.8 °F 75% 29.68 in 6.2 mi WSW 10.4 mph - N/A   Scattered Clouds
10:00 AM 87.8 °F 102.5 °F 78.8 °F 75% 29.68 in 6.2 mi SW 8.1 mph - N/A   Scattered Clouds
11:00 AM 89.6 °F 104.7 °F 78.8 °F 70% 29.65 in 6.2 mi SW 9.2 mph - N/A   Scattered Clouds
11:30 AM 91.4 °F 107.2 °F 78.8 °F 66% 29.65 in 6.2 mi SW 10.4 mph - N/A   Scattered Clouds
12:00 PM 91.4 °F 105.1 °F 77.0 °F 63% 29.62 in 6.2 mi SW 5.8 mph - N/A   Scattered Clouds
12:30 PM 93.2 °F 105.0 °F 75.2 °F 56% 29.62 in 6.2 mi SW 5.8 mph - N/A   Scattered Clouds
1:00 PM 91.4 °F 102.5 °F 75.2 °F 59% 29.59 in 6.2 mi WSW 3.5 mph - N/A   Scattered Clouds
1:30 PM 93.2 °F 105.0 °F 75.2 °F 56% 29.56 in 6.2 mi SSW 6.9 mph - N/A   Scattered Clouds
2:00 PM 93.2 °F 105.0 °F 75.2 °F 56% 29.56 in 6.2 mi NW 2.3 mph - N/A   Scattered Clouds
2:30 PM 93.2 °F 105.0 °F 75.2 °F 56% 29.56 in 6.2 mi South 3.5 mph - N/A   Scattered Clouds
3:00 PM 95.0 °F 107.4 °F 75.2 °F 53% 29.53 in 6.2 mi SSW 4.6 mph - N/A   Scattered Clouds
3:30 PM 95.0 °F 104.5 °F 73.4 °F 49% 29.53 in 6.2 mi SSE 5.8 mph - N/A   Scattered Clouds
4:00 PM 95.0 °F 104.5 °F 73.4 °F 49% 29.53 in 6.2 mi West 3.5 mph - N/A   Scattered Clouds
4:30 PM 95.0 °F 104.5 °F 73.4 °F 49% 29.53 in 6.2 mi SSW 3.5 mph - N/A   Scattered Clouds
5:00 PM 95.0 °F 104.5 °F 73.4 °F 49% 29.53 in 6.2 mi SSW 5.8 mph - N/A   Scattered Clouds
5:30 PM 87.8 °F 99.7 °F 77.0 °F 70% 29.53 in 6.2 mi WSW 20.7 mph - N/A   Mostly Cloudy
6:00 PM 84.2 °F 94.1 °F 77.0 °F 79% 29.56 in 6.2 mi SW 13.8 mph - N/A   Scattered Clouds
7:00 PM 84.2 °F 94.1 °F 77.0 °F 79% 29.56 in 6.2 mi Variable 2.3 mph - N/A   Partly Cloudy
7:30 PM 82.4 °F 90.9 °F 77.0 °F 84% 29.59 in 6.2 mi SSW 3.5 mph - N/A   Partly Cloudy
8:00 PM 82.4 °F 90.9 °F 77.0 °F 84% 29.59 in 6.2 mi Variable 3.5 mph - N/A   Partly Cloudy
8:30 PM 80.6 °F 86.2 °F 75.2 °F 84% 29.62 in 6.2 mi SW 6.9 mph - N/A   Partly Cloudy
9:00 PM 80.6 °F 86.2 °F 75.2 °F 84% 29.62 in 6.2 mi Variable 3.5 mph - N/A   Partly Cloudy
9:30 PM 80.6 °F 86.2 °F 75.2 °F 84% 29.62 in 6.2 mi Variable 1.2 mph - N/A   Partly Cloudy
10:00 PM 80.6 °F 87.1 °F 77.0 °F 89% 29.65 in 6.2 mi Variable 2.3 mph - N/A   Partly Cloudy
10:30 PM 80.6 °F 87.1 °F 77.0 °F 89% 29.65 in 6.2 mi Variable 2.3 mph - N/A   Partly Cloudy
11:00 PM 80.6 °F 87.1 °F 77.0 °F 89% 29.62 in 6.2 mi SSW 3.5 mph - N/A   Partly Cloudy
11:30 PM 80.6 °F 87.1 °F 77.0 °F 89% 29.62 in 6.2 mi South 2.3 mph - N/A   Partly Cloudy